Home   Weather   Stonewall   Past weeks

Flag for Canada Past Weather in Stonewall, Manitoba, Canada — Yesterday and Last 2 Weeks

Now
34 °F

Low clouds.


Feels Like: 28 °F
Forecast: 32 / 37 °F
Wind: 7 mph from Northwest

Location: Winnipeg Int. Airportman.

Current Time: Feb 20, 2017 at 12:22:56 pm

Latest Report: Feb 20, 2017 at 11:48 am


Visibility: 11 mi

Pressure: 29.64 "Hg

Humidity: 93%

Dew Point: 32 °F

Location of StonewallLocation

Past Weather in Stonewall — Graph

°F

Stonewall Temperature Yesterday

Maximum temperature yesterday: 39 °F (at 3:00 pm)
Minimum temperature yesterday: 25 °F (at 4:00 am)
Average temperature yesterday: 34 °F

High & Low Weather Summary for the Past Weeks

 TemperatureHumidityPressure
High41 °F (Feb 17, 4:00 pm)100% (Feb 19, 6:00 am)30.23 "Hg (Feb 19, 6:00 am)
Low-17 °F (Feb 8, 4:00 am)54% (Feb 14, 8:00 am)29.27 "Hg (Feb 17, 2:00 pm)
Average17 °F78%29.86 "Hg
* Reported Feb 5 11:00 am — Feb 20 11:00 am, Stonewall, Weather by CustomWeather, © 2017

Note: Actual official high and low records may vary slightly from our data, if they occured in-between our weather recording intervals... More about our weather records

Advertising

Stonewall Weather History for the Previous 24 Hours

Scroll right to see more
 ConditionsComfort  
Time TempWeatherWind HumidityBarometerVisibility
11:00 am
Mon, Feb 20
34 °FLow clouds.6 mph93%29.65 "Hg7 mi
10:24 am34 °FFog.5 mph100%29.64 "Hg4 mi
10:00 am34 °FDrizzle. Fog.3 mph100%29.62 "Hg2 mi
9:57 am34 °FDrizzle. Fog.8 mph100%29.62 "Hg2 mi
9:20 am34 °FDrizzle. Fog.10 mph100%29.63 "Hg1 mi
9:00 am34 °FDrizzle. Fog.8 mph100%29.64 "Hg0 mi
8:37 am36 °FDrizzle. Fog.9 mph100%29.65 "Hg0 mi
8:00 am36 °FDrizzle. Fog.9 mph100%29.65 "Hg1 mi
7:56 am36 °FDrizzle. Fog.9 mph100%29.65 "Hg1 mi
7:27 am37 °FLow clouds.8 mph93%29.62 "Hg12 mi
7:00 am37 °FLow clouds.7 mph87%29.62 "Hg15 mi
6:30 am37 °FLow clouds.6 mph93%29.62 "Hg15 mi
6:00 am37 °FOvercast.6 mph93%29.62 "Hg15 mi
5:00 am37 °FOvercast.9 mph87%29.61 "Hg15 mi
4:00 am39 °FOvercast.12 mph87%29.62 "Hg15 mi
3:00 am41 °FOvercast.15 mph81%29.62 "Hg15 mi
2:06 am41 °FOvercast.15 mph76%29.63 "Hg15 mi
1:00 am39 °FOvercast.12 mph81%29.64 "Hg15 mi
12:00 am39 °FMostly cloudy.13 mph75%29.65 "Hg15 mi
11:00 pm
Sun, Feb 19
39 °FMostly cloudy.13 mph75%29.66 "Hg15 mi
10:00 pm39 °FMostly cloudy.16 mph70%29.68 "Hg15 mi
9:00 pm39 °FPassing clouds.17 mph70%29.68 "Hg15 mi
8:00 pm39 °FPassing clouds.17 mph70%29.70 "Hg15 mi
7:00 pm39 °FPassing clouds.17 mph70%29.74 "Hg15 mi
6:00 pm39 °FPassing clouds.20 mph70%29.72 "Hg15 mi
5:00 pm39 °FBroken clouds.16 mph70%29.74 "Hg15 mi
4:00 pm39 °FPartly sunny.14 mph70%29.77 "Hg15 mi
3:00 pm39 °FBroken clouds.15 mph70%29.79 "Hg15 mi
2:00 pm37 °FBroken clouds.12 mph75%29.81 "Hg15 mi
1:00 pm36 °FOvercast.10 mph81%29.84 "Hg15 mi
12:34 pm36 °FPartly sunny.13 mph81%29.85 "Hg15 mi
12:00 pm34 °FLight rain. Mostly cloudy.15 mph81%29.85 "Hg15 mi
Weather by CustomWeather, © 2017

See weather overviewHow to use our weather pages